Regional Weather Roundup
Issued by NWS Newport/Morehead, NC

Current Version | Previous Version | Text Only | Print | Product List | Glossary On
Versions: 1 2 3 4 5 6 7 8 9 10 11 12 13 14 15 16 17 18 19 20 21 22 23 24 25 26 27 28 29 30 31 32 33 34 35 36 37 38 39 40 41 42 43 44 45 46 47 48 49 50
000
ASUS42 KMHX 290925
RWRMHX
WEATHER ROUNDUP FOR EASTERN NORTH CAROLINA
NATIONAL WEATHER SERVICE NEWPORT/MOREHEAD CITY NC
500 AM EDT FRI JUL 29 2016

NOTE: "FAIR" INDICATES FEW OR NO CLOUDS BELOW 12,000 FEET
WITH NO SIGNIFICANT WEATHER AND/OR OBSTRUCTIONS TO VISIBILITY

NCZ015>017-031-032-045>047-102-103-291000-
NORTH COAST

CITY           SKY/WX    TMP DP  RH WIND       PRES   REMARKS
EDENTON        CLEAR     85  73  67 SW9       29.84S
ELIZABETH CITY CLEAR     81  72  74 SW12G21   29.81F
KITTY HAWK     SUNNY     83  74  74 SW8       29.82S
MANTEO           N/A     82  77  86 W12       29.84S

$$

NCZ045>047-081-094-103-104-291000-
CENTRAL COAST

CITY           SKY/WX    TMP DP  RH WIND       PRES   REMARKS
FRISCO         CLEAR     80  78  94 W9        29.87S

$$

NCZ095-097-098-100-101-291000-
SOUTHERN COAST

CITY           SKY/WX    TMP DP  RH WIND       PRES   REMARKS
BEAUFORT       CLEAR     82  78  88 SW10      29.88F
CEDAR ISLAND   NOT AVBL
JACKSONVILLE   CLEAR     79  74  84 SW7       29.89S
PINEY ISLAND   NOT AVBL
WILMINGTON     CLEAR     81  77  88 SW6       29.91S


$$

NCZ011>013-027>030-043-044-078>080-089-090>093-098-291000-
COASTAL PLAIN

CITY           SKY/WX    TMP DP  RH WIND       PRES   REMARKS
AHOSKIE        CLEAR     75  72  89 CALM      29.83S
CLINTON        CLEAR     78  75  91 CALM      29.89S
ELIZABETHTOWN  CLEAR     79  76  92 CALM      29.90F
GOLDSBORO      PTCLDY    81  75  83 SW10      29.85F
GREENVILLE     CLEAR     81  77  89 SW8       29.87F
HAVELOCK       CLEAR     78  74  87 SW8       29.89F
KENANSVILLE    NOT AVBL
KINSTON        CLEAR     79  75  87 SW8       29.87F
NEW BERN       CLEAR     79  74  84 SW7       29.89F
RICHLANDS      CLEAR     79  76  90 SW10      29.89F
ROCKY MOUNT    PTCLDY    76  73  91 S6        29.85S
WASHINGTON     PTCLDY    79  74  84 SW7       29.85F
WHITEVILLE     CLEAR     79  75  89 SW5       29.91S

$$

AMZ130-135-150-152-154-156-158-170-250-252-270-ANZ085-086-088-633-658-670-291000-
MARINE OBSERVATIONS

STATION/POSITION TIME  TEMP    WIND        PRES    WAVE   SWELL
                       AIR SEA DIR/SP/G            HT/PER HT/PER
                 (UTC) (F)     (DEG/KT/KT) (MB)    (FT/S) (FT/S)
CHESAPEAKE LIGHT NOT AVBL
64 E VA BEACH    0850   83 81  210/ 16/ 17 1008.9    3/ 5   2/ 8
DUCK             0900   84 67  230/ 14/ 17 1009.2
2 E DUCK         0841      73                N/A     1/14
OREGON INLET     0900   84 83  230/ 15/ 19 1010.2
13E OREGON INLT  0900      80                N/A     3/ 5   2/ 8
HATTERAS CG      0900   81 83  240/ 10/ 13 1011.1
DIAMOND BUOY     0850   85 85  240/ 19/ 21 1011.2    5/ 6   2/14
CAPE LOOKOUT     0900   83     240/ 13/ 17 1011.8
BEAUFORT LAB     0900   82 83  240/  4/  9 1011.4
30 SE NEW RVR IN 0908   84 85  240/ 19/ 25 1012.1
30 SE NEW RVR IN 0825      85                N/A     5/ 6
27 SE WRIGHTSVLE 0908   84 84  230/ 17/ 23 1012.7
5 SE WRIGHTSVLE  0908   81 80  250/ 10/ 14 1013.4
225 S CAPE HAT   0850   83 84  250/  8/ 10 1015.2    3/ 6   3/ 6
41 SE CHARLESTON 0850   85 86  240/ 19/ 23 1013.3    5/ 5   2/ 8

$$




USA.gov is the U.S. government's official web portal to all federal, state and local government web resources and services.